Tracking 35275 objects as of 9-Sep-2026
HD Live streaming from Space Station
objects crossing your sky now

RADUGA 1-4

Track RADUGA 1-4 now!
RADUGA 1-4 is classified as:


NORAD ID: 25642
Int'l Code: 1999-010A
Launch date: February 28, 1999
Source: Commonwealth of Independent States (former USSR) (CIS)
Launch site: TYURATAM MISSILE AND SPACE COMPLEX (TTMTR)

Military communication.
Your satellite tracking list
Your tracking list is empty




NASA's NSSDC Master Catalog

Two Line Element Set (TLE):
1 25642U 99010A   26251.81673975 -.00000122  00000-0  00000-0 0  9996
2 25642  15.6586   0.9091 0005835 276.4788  81.2675  1.00189814100781
Source of the keplerian elements: AFSPC